www.pogodaiklimat.ru

Погода и климат >> Архив погоды >> Сенегал >> Matam


ПОГОДА в Matam

  • Прогноз погоды в Matam
  • Монитор погоды в Matam
  • Климат города

АРХИВ ПОГОДЫ в Matam

Время (UTC), дата Ветер
(напр.,м/с)
 
Видим.   Явления Облачность Т
(С)
Тd
(С)
f
(%)
Тe
(С)
Тes
(С)
Комфортность P
(гПа)
Po
(гПа)
Тmin
(С)
Tmax
(С)
R
(мм)
R24
(мм)
S
(см)
18 10.12 С 1 10 км ясно +35.0 +10.3 22 +34 +34 очень
жарко
1012.5 1010.6 +38.1
21 10.12 штиль 0 10 км ясно +25.0 +9.4 37 +26 +26 жарко 1015.7 1013.8
00 11.12 штиль 0 10 км ясно +20.0 +7.6 45 +21 +21 комфорт 1015.8 1013.9
03 11.12 штиль 0 10 км ясно +18.0 +5.8 45 +18 +18 1014.0 1012.1
06 11.12 СВ 1 10 км ясно +16.0 +5.6 50 +17 +17 1014.0 1012.1 +15.9
09 11.12 С 2 10 км ясно +20.0 +7.4 44 +22 +24 комфорт 1016.0 1014.0
12 11.12 Ю 2 10 км ясно +34.3 +3.0 14 +31 +44 жарко 1016.3 1014.4
15 11.12 Ю 1 10 км ясно +38.0 +5.4 14 +35 +46 очень
жарко
1011.8 1009.9
18 11.12 В 1 10 км ясно +34.4 +7.7 19 +33 +33 жарко 1011.1 1009.2 +39.4
21 11.12 СВ 1 10 км ясно +24.5 +7.6 34 +25 +25 комфорт 1013.5 1011.6
00 12.12 СВ 1 10 км ясно +20.6 +6.4 40 +23 +23 комфорт 1012.9 1011.0
03 12.12 СВ 1 10 км ясно +22.5 +5.7 34 +23 +23 комфорт 1012.2 1010.3
06 12.12 В 1 10 км ясно +18.5 +3.7 37 +20 +20 1013.3 1011.4 +18.0
09 12.12 В 1 10 км 5/0
[Ci sp]
+22.0 +4.9 33 +22 +25 комфорт 1014.5 1012.5
18 12.12 ЮВ 2 10 км 8/0
[Ac trans Ci sp]
+32.0 +10.2 26 +32 +32 жарко 1012.7 1010.8 +36.5
21 12.12 В 2 10 км 4/0
[Ac trans]
+26.6 +7.4 30 +26 +26 жарко 1014.7 1012.7
00 13.12 В 1 10 км 3/0
[Ac trans]
+24.5 +5.3 29 +24 +24 комфорт 1015.1 1013.2
06 13.12 В 1 10 км ясно +20.5 +3.9 33 +22 +22 комфорт 1013.8 1010.8 +20.0
09 13.12 В 1 10 км 6/0
[Ac trans]
+21.0 +7.5 42 +23 +25 комфорт 1017.4 1005.4
12 13.12 Ю 2 10 км 6/0
[Ac trans Ci sp]
+32.8 +3.4 16 +30 +39 жарко 1017.0 1015.1
15 13.12 ЮВ 2 10 км 4/0
[Ac trans Ci sp]
+34.6 +6.2 17 +32 +40 жарко 1012.8 1010.9
18 13.12 0 н/о +7.4 1013.4 1011.4
21 13.12 штиль 0 10 км 4/0
[Ac trans]
+27.5 +6.9 27 +27 +27 жарко 1015.4 1013.4
00 14.12 В 1 10 км 4/0
[Ac trans]
+26.5 +4.8 25 +26 +26 жарко 1015.6 1013.7
03 14.12 штиль 0 10 км ясно +25.0 +5.5 29 +25 +25 комфорт 1015.1 1013.2
06 14.12 ЮВ 1 10 км ясно +23.0 +5.1 31 +23 +23 комфорт 1015.2 1013.3 +22.4
09 14.12 ЮВ 2 10 км 5/0
[Ac trans]
+23.6 +8.5 38 +24 +26 комфорт 1017.3 1015.4
12 14.12 ЮВ 2 10 км 5/0
[Ac trans]
+32.0 +0.6 13 +29 +38 жарко 1016.4 1014.5
15 14.12 Ю 3 10 км 5/0
[Ac trans]
+36.0 +1.7 12 +33 +38 жарко 1015.6 1013.7
18 14.12 Ю 2 10 км 4/0
[Ac trans]
+33.0 +4.9 17 +31 +31 жарко 1016.7 1014.8 +36.0
21 14.12 В 1 10 км 4/0
[Ac trans]
+25.8 +6.8 30 +26 +26 жарко 1017.6 1015.7
00 15.12 В 1 10 км 5/0
[Ac trans]
+25.5 +2.2 22 +24 +24 комфорт 1017.8 1015.9
03 15.12 ЮВ 1 10 км 5/0
[Ac trans]
+24.2 +4.4 28 +24 +24 комфорт 1017.8 1015.9
06 15.12 ЮВ 1 10 км 5/0
[Ac trans]
+22.5 +4.8 32 +23 +23 комфорт 1017.0 1015.1 +22.1
09 15.12 ЮВ 1 10 км 8/0
[Ac trans]
+23.5 +4.4 29 +23 +25 комфорт 1019.1 1017.2
12 15.12 В 2 10 км 8/0
[Ac trans]
+29.5 +6.0 23 +28 +35 жарко 1018.0 1016.1
15 15.12 СВ 2 10 км 8/0
[Ac As]
+31.0 +6.4 21 +29 +33 жарко 1017.0 1015.1
18 15.12 СВ 2 10 км 6/0
[Ac As]
+29.5 +6.7 24 +28 +28 жарко 1016.8 1014.9 +31.6
21 15.12 СВ 1 10 км 6/0
[Ac As]
+23.2 +6.3 34 +24 +24 комфорт 1019.0 1017.0
00 16.12 СВ 1 10 км 5/0
[Ac trans]
+20.6 +8.0 44 +23 +23 комфорт 1018.8 1016.9
03 16.12 штиль 0 10 км 4/0
[Ac trans]
+20.0 +7.4 44 +21 +21 комфорт 1017.1 1015.2
06 16.12 штиль 0 10 км 3/0
[Ac trans]
+18.5 +5.2 42 +19 +19 1017.4 1015.4 +18.0
09 16.12 В 1 10 км 5/0
[Ac trans]
+23.5 +4.4 29 +23 +26 комфорт 1018.6 1016.6
12 16.12 Ю 1 10 км 3/0
[Ac trans]
+32.0 +2.6 15 +29 +41 жарко 1017.3 1015.4
15 16.12 Ю 2 10 км 4/0
[Ac trans]
+35.2 +2.1 12 +32 +39 жарко 1015.2 1013.3
18 16.12 ЮВ 1 10 км 6/0
[Ac trans]
+33.0 +4.9 17 +31 +31 жарко 1014.6 1012.7 +35.5
21 16.12 В 1 10 км 5/0
[Ac trans]
+25.0 +5.5 29 +25 +25 комфорт 1016.8 1014.8
00 17.12 ЮВ 1 10 км 3/0
[Ac trans]
+22.0 +4.9 33 +22 +22 комфорт 1017.2 1015.3
03 17.12 СВ 1 10 км 3/0
[Ac trans]
+21.5 +2.8 29 +21 +21 комфорт 1016.6 1014.7
06 17.12 В 1 10 км ясно +21.0 +2.2 29 +22 +22 комфорт 1016.9 1014.0 +20.2
09 17.12 ЮВ 1 10 км 3/0
[Ac trans]
+20.7 +5.2 36 +23 +25 комфорт 1017.9 1016.0
12 17.12 Ю 2 10 км 4/0
[Ac trans Ci sp]
+31.5 +2.2 15 +29 +40 жарко 1017.0 1015.1
15 17.12 ЮВ 2 10 км 1/0
[Ac trans]
+36.8 +6.2 15 +34 +43 очень
жарко
1013.4 1011.5

 

Местоположение метеостанции Matam (Сенегал): широта 15.65 долгота -13.25 высота над уровнем моря 17 м.

В архиве по умолчанию представлена погода в Matam за последнюю неделю. Архивные данные за месяц целиком и за предыдущие месяцы, начиная с января 2011 года, Вы можете получить, выбрав интересующий диапазон дат из раскрывающегося списка и нажав кнопку "Ввод!".


*Определитесь, кто Вы:
робот инопланетянин человек

Внимание! Время в таблицах - всемирное. Для получения местного времени необходимо прибавить поправку, которая в Matam равна 0 ч.

Смотрите также архив погоды в соседних городах и на ближайших метеорологических станциях:

Погода в Kaedi (Мавритания) (62 км)
Погода в Fatoto (Гамбия) (198 км)
Погода в Linguere (Сенегал) (202 км)
Погода в Podor (Сенегал) (214 км)
Погода в Tambacounda (Сенегал) (214 км)
Погода в Kiffa (Мавритания) (226 км)
Погода в Kayes (Мали) (238 км)
Погода в Boutilimit (Мавритания) (259 км)
Погода в Georgetown (Гамбия) (287 км)
Погода в Rosso (Мавритания) (289 км)

Пояснения к столбцам:

Ветер - указаны скорость ветра в м/с - средняя за 10 мин, порывы в срок и между сроками (в фигурных скобках) и направление, откуда дует ветер: С - северный, СВ - северо-восточный, В - восточный, ЮВ - юго-восточный, Ю - южный, ЮЗ - юго-западный, З - западный, СЗ - северо-западный.
Видимость - горизонтальная дальность видимости в метрах или километрах. При видимости от 1 до 10 км при отсутствии осадков обычно наблюдается дымка, при ухудшении видимости до 1 км и менее - туман. В сухую погоду видимость может ухудшаться дымом, пылью или мглою.
Явления - указаны атмосферные явления, наблюдавшиеся в срок или в последний час перед сроком; фигурными скобками обозначены явления, наблюдавшиеся между сроками (за 1-3 часа до срока); квадратными скобками обозначены град или гололедные отложения с указанием их диаметра в мм.
Облачность - указаны через наклонную черту общая и нижняя облачность в баллах и высота нижней границы облаков в метрах; квадратными скобками обозначены формы облаков: Ci - перистые, Cs - перисто-слоистые, Cc - перисто-кучевые, Ac - высококучевые, As - высокослоистые, Sc - слоисто-кучевые, Ns - слоисто-дождевые, Cu - кучевые, Cb - кучево-дождевые. Подробнее классификацию облаков см. в Атласе облаков (PDF).
T - Температура воздуха - температура, измеренная на высоте 2 м над землей.
Td - Температура точки росы - температура, при понижении до которой содержащийся в воздухе водяной пар достигнет насыщения.
f - Относительная влажность воздуха - влажноcть воздуха, измеренная на высоте 2 м над землей.
Te - Эффективная температура - температура, которую ощущает одетый по сезону человек в тени. Характеристика душности погоды. При расчете учитывается влияние влажности воздуха и скорости ветра на теплоощущения человека.
Tes - Эффективная температура на солнце - температура, которую ощущает человек, с поправкой на солнечный нагрев. Характеристика знойности погоды. Зависит от высоты солнца над горизонтом, облачности и скорости ветра. Ночью, в пасмурную погоду, а также при ветре 12 м/с и более поправка равна нулю.
P - Атмосферное давление - приведенное к уровню моря атмосферное давление.
Po - Атмосферное давление - измеренное на уровне метеостанции атмосферное давление.
Tmin - Минимальная температура - минимум температуры воздуха на высоте 2 м над землей.
Tmax - Максимальная температура - максимум температуры воздуха на высоте 2 м над землей.
R - Количество осадков - Количество выпавших осадков за период времени, мм. При наведении курсора мыши на число - период времени, за который выпало указанное количество осадков.
R24 - Количество осадков - Количество выпавших осадков за 24 часа, мм.
S - Снежный покров - Высота снежного покрова, см. При наведении курсора мыши на число - состояние снежного покрова и степень покрытия местности в баллах.